Dewpoint
-2 -3 -3 -6 -6 -8 -7 -6 -6 -6 -4 -2 -4 -4 -5 -5 -10 -9 -8 -6 -5 -9 -8 -10 -10 -10 -11 -12 -13 -13 -14 -13 -11 -9 -7 -8 -9 -10 -11 -11 -12 -13 -12 -12
-3 -4 -7 -7 -6 -5 -5 -4 -4 -5 -4 -3 -3 -4 -5 -5 -10 -9 -9 -7 -5 -8 -9 -9 -10 -10 -11 -12 -13 -13 -13 -13 -11 -9 -7 -8 -9 -9 -10 -11 -11 -12 -12 -12
-5 -8 -8 -7 -5 -4 -5 -4 -4 -3 -3 -3 -3 -4 -2 -6 -11 -10 -10 -9 -8 -7 -8 -9 -9 -10 -10 -11 -12 -12 -11 -10 -10 -8 -7 -8 -8 -8 -10 -10 -10 -11 -11 -12
-6 -9 -7 -5 -5 -5 -3 -4 -3 -2 -0 4 -3 5 -6 -6 -10 -10 -10 -10 -8 -8 -7 -7 -9 -9 -9 -10 -11 -10 -9 -9 -9 -6 -7 -8 -7 -8 -10 -9 -10 -10 -10 -11
-5 -6 -6 -4 -5 -5 -3 -3 -2 -1 2 3 0 8 -5 -3 -5 -8 -10 -10 -8 -8 -7 -7 -9 -10 -10 -11 -10 -8 -9 -8 -8 -6 -7 -7 -7 -7 -8 -8 -9 -9 -9 -10
-6 -6 -5 -5 -4 -4 -3 -2 -2 -0 2 7 3 2 -7 -3 -4 -6 -10 -11 -9 -9 -9 -6 -8 -9 -9 -8 -8 -8 -8 -7 -6 -6 -8 -6 -5 -7 -9 -9 -9 -8 -8 -9
-2 -4 -6 -5 -2 -2 -1 0 6 6 7 3 -1 1 1 -4 -8 -8 -10 -10 -7 -9 -7 -7 -8 -8 -8 -8 -8 -7 -6 -6 -5 -8 -6 -5 -7 -8 -9 -9 -9 -9 -9 -9
-5 -4 -3 -5 -1 5 -1 4 8 5 -6 -9 -1 3 -0 -5 -9 -10 -9 -5 -5 -7 -7 -6 -6 -7 -7 -7 -6 -6 -5 -5 -7 -6 -5 -6 -8 -8 -9 -9 -9 -9 -10 -10
-5 -8 -6 -6 -3 -1 0 2 -4 4 -1 1 -7 -4 -5 -7 -7 -7 -5 -5 -4 -5 -6 -5 -6 -6 -6 -6 -5 -5 -5 -6 -6 -5 -6 -6 -7 -7 -8 -8 -9 -9 -9 -9
-2 1 -4 -5 -4 -3 0 -2 3 4 3 -1 -6 -1 -6 -5 -6 -7 -5 -5 -4 -4 -5 -6 -5 -5 -5 -5 -5 -5 -5 -5 -5 -5 -5 -5 -6 -6 -7 -7 -8 -8 -7 -7
-1 1 -2 -4 -2 3 0 4 1 1 0 4 -3 -5 -0 0 -3 -5 -6 -4 -3 -4 -4 -4 -4 -4 -4 -5 -5 -4 -4 -4 -4 -4 -4 -5 -5 -6 -6 -5 -5 -5 -4 -5
-2 3 2 -3 -3 -4 -2 2 4 1 2 1 2 1 -1 -0 -2 -2 -2 -2 -2 -4 -5 -5 -5 -5 -4 -4 -3 -3 -3 -3 -4 -4 -5 -5 -5 -3 -2 -3 -4 -6 -7 -10
2 2 1 -2 -1 -2 1 -0 -1 -0 1 3 2 2 -1 -1 -1 -3 -3 -2 -3 -3 -3 -3 -3 -3 -3 -2 -2 -3 -3 -4 -5 -5 -3 -2 -2 -4 -8 -11 -12 -13 -14 -15
-2 1 3 1 1 0 1 0 -1 1 3 3 2 2 2 2 1 -1 -2 -3 -3 -4 -3 -3 -2 -2 -3 -4 -4 -4 -4 -4 -3 -2 -3 -4 -6 -10 -12 -13 -14 -15 -15 -16
-1 2 -0 -1 -1 -0 1 1 0 0 1 3 2 2 2 2 1 -0 -2 -2 -2 -3 -3 -3 -4 -4 -3 -4 -4 -4 -3 -3 -4 -4 -5 -6 -8 -12 -13 -14 -15 -16 -17 -19
-3 0 -0 0 -3 -0 1 -1 -0 0 0 1 1 1 -2 -2 -1 -1 -1 -2 -2 -3 -3 -3 -4 -4 -4 -4 -4 -4 -4 -5 -5 -6 -7 -10 -11 -13 -14 -15 -16 -18 -19 -19
-1 -1 -1 -4 -2 -3 -4 -3 -2 -1 -1 -1 1 0 -1 -2 -2 -2 -1 -2 -3 -3 -4 -4 -4 -4 -4 -4 -5 -5 -6 -6 -6 -8 -10 -11 -12 -13 -14 -15 -17 -18 -19 -20
-3 -1 -2 -2 -2 -1 -3 -5 -4 -2 -3 -3 -2 -2 -3 -3 -3 -3 -3 -3 -3 -3 -4 -4 -4 -5 -5 -5 -6 -6 -6 -6 -7 -9 -10 -11 -12 -13 -14 -16 -17 -18 -19 -20
-3 -3 -1 -1 -2 -7 -5 -3 -2 -2 -3 -3 -3 -3 -3 -3 -3 -3 -4 -3 -3 -3 -4 -4 -5 -5 -6 -6 -6 -6 -6 -7 -9 -10 -11 -12 -12 -13 -15 -16 -17 -18 -19 -19
-3 -1 -0 -1 -3 -8 -5 -5 -3 -3 -2 -4 -4 -3 -3 -3 -2 -4 -5 -4 -4 -4 -5 -5 -5 -6 -6 -6 -6 -7 -7 -9 -10 -10 -11 -12 -13 -14 -16 -16 -17 -18 -19 -19
-2 -2 -2 -3 -4 -7 -8 -3 -3 -4 -6 -4 -4 -5 -4 -3 -3 -5 -5 -4 -5 -5 -5 -5 -5 -5 -5 -6 -7 -7 -8 -9 -10 -11 -12 -13 -14 -15 -16 -16 -18 -18 -18 -18
-3 -4 -5 -5 -4 -7 -5 -4 -3 -9 -9 -7 -5 -5 -5 -5 -5 -4 -5 -5 -5 -5 -5 -5 -6 -6 -7 -8 -9 -9 -9 -10 -11 -11 -12 -13 -14 -15 -16 -17 -18 -18 -18 -17
-3 -6 -9 -10 -14 -12 -5 -5 -7 -7 -5 -5 -6 -7 -6 -6 -6 -5 -5 -5 -5 -6 -6 -7 -7 -8 -9 -9 -9 -9 -10 -11 -11 -12 -13 -14 -14 -15 -17 -17 -17 -17 -17 -16
-9 -10 -8 -8 -15 -11 -9 -10 -9 -7 -7 -7 -7 -5 -5 -7 -6 -6 -6 -6 -7 -8 -8 -9 -9 -9 -8 -9 -10 -10 -11 -12 -13 -13 -14 -15 -16 -16 -17 -17 -17 -17 -16 -16
-12 -10 -11 -10 -10 -11 -13 -12 -11 -9 -6 -6 -7 -5 -7 -7 -8 -8 -7 -9 -9 -9 -9 -9 -8 -8 -9 -10 -11 -12 -12 -13 -14 -14 -15 -16 -16 -17 -17 -17 -17 -17 -16 -16
-9 -9 -11 -12 -11 -9 -9 -9 -9 -7 -7 -7 -5 -6 -7 -7 -8 -9 -10 -9 -9 -9 -8 -8 -8 -9 -10 -11 -12 -13 -14 -14 -15 -15 -16 -16 -17 -17 -17 -18 -18 -18 -16 -15
Wind_Speed
1 5 7 3 3 1 1 3 6 2 2 4 6 11 13 8 6 4 3 1 8 10 12 17 21 23 24 25 24 22 21 21 21 20 19 16 14 12 11 10 8 7 6 5
3 7 2 6 4 2 3 4 5 1 1 3 5 15 6 7 5 2 2 0 6 10 12 18 22 24 25 26 25 23 22 21 21 19 18 17 15 14 12 11 9 7 6 4
6 3 5 2 4 4 4 5 3 3 3 2 7 7 5 6 6 4 3 3 6 11 13 19 23 24 24 26 26 24 22 21 21 20 18 17 15 14 14 13 11 10 9 7
1 3 4 4 4 5 5 1 2 1 2 3 3 4 6 10 10 9 8 6 7 10 13 17 21 23 24 25 25 23 22 22 21 20 18 15 14 14 15 14 13 11 10 8
1 5 4 5 1 3 1 2 3 1 0 3 5 3 3 5 12 13 11 8 7 10 13 18 20 21 22 24 24 23 23 21 21 20 18 16 16 15 14 15 14 13 11 9
3 1 1 2 3 2 9 3 3 2 1 3 1 4 6 7 7 13 13 8 6 9 13 16 19 22 23 24 25 25 23 23 22 21 18 16 15 14 14 14 14 13 11 10
2 3 2 1 3 4 3 3 2 3 3 4 3 4 9 2 1 5 12 8 3 7 12 18 22 24 24 25 24 24 24 23 22 20 18 16 14 13 12 12 12 11 10 9
4 4 5 1 1 1 6 2 3 5 5 4 2 7 4 3 4 5 8 6 4 5 11 16 20 23 24 24 24 24 23 22 21 18 16 15 13 13 13 12 11 11 10 9
2 2 2 4 2 2 5 6 2 3 2 2 5 5 5 3 3 5 6 5 4 4 8 13 19 22 24 24 24 23 22 20 19 18 17 16 14 12 11 10 9 9 8 7
1 3 2 2 0 3 1 2 1 1 4 7 5 4 8 2 8 7 8 7 3 3 6 12 16 20 22 23 24 23 21 21 20 19 17 15 13 12 10 9 8 7 6 7
2 1 2 2 5 3 3 2 1 2 3 4 9 4 1 3 4 9 9 7 5 4 6 10 15 18 21 22 23 23 22 22 21 19 16 14 13 11 9 7 6 7 9 10
1 0 3 1 2 2 2 1 3 4 4 2 2 7 1 4 5 5 9 8 6 6 7 11 16 20 22 23 22 22 23 21 20 19 17 13 12 10 9 8 8 8 9 9
4 1 4 3 2 2 4 3 1 1 0 7 6 3 1 0 3 6 12 10 10 10 10 12 13 18 21 21 22 24 25 26 22 19 16 12 9 5 6 7 8 9 11 12
3 2 5 11 10 3 3 4 4 4 5 9 14 20 6 3 5 7 14 18 16 15 15 14 16 15 19 21 24 24 23 21 18 15 12 7 4 6 7 8 10 11 12 13
2 4 5 9 9 4 6 9 7 11 13 11 16 16 12 7 4 14 20 22 20 18 15 15 20 23 23 24 24 22 18 15 13 9 7 5 6 7 8 9 11 12 13 13
2 3 2 7 13 10 9 11 12 12 13 15 17 19 4 10 12 10 11 16 19 18 18 19 21 22 23 22 19 17 14 11 9 6 5 6 6 7 9 10 11 12 12 14
3 3 3 5 2 10 10 3 3 3 5 3 7 4 9 9 7 7 8 15 18 19 21 23 23 22 19 18 15 13 10 8 6 6 5 6 7 8 10 10 11 12 13 14
2 3 3 5 6 5 1 2 2 4 4 4 6 8 6 5 1 1 1 7 11 16 20 21 20 19 17 15 12 9 7 5 5 6 7 8 9 10 11 12 13 13 14 14
11 5 3 3 5 12 9 4 4 2 2 6 4 3 5 3 3 4 2 6 11 16 19 19 17 16 14 12 9 7 6 6 7 8 10 11 11 11 11 12 13 14 14 14
1 5 4 2 5 5 3 4 5 3 6 7 6 7 9 5 5 4 7 8 10 13 15 15 12 11 11 10 8 7 8 8 10 11 11 11 12 13 12 13 14 14 15 15
3 2 9 9 7 7 2 10 6 4 1 3 9 14 12 8 10 4 11 13 15 16 16 14 13 11 10 10 10 10 10 11 11 11 12 12 13 13 14 14 14 14 15 15
6 6 4 3 4 7 9 7 5 4 12 13 12 13 19 20 13 11 16 17 17 16 14 12 11 11 9 8 9 9 11 12 13 12 12 13 13 14 14 14 14 14 15 15
4 5 3 7 7 1 9 10 10 16 13 14 20 22 20 17 16 16 17 16 16 14 13 11 10 10 9 10 10 11 13 13 13 13 13 13 13 13 13 13 13 14 14 14
5 5 4 1 10 8 9 17 19 14 15 19 21 21 19 19 19 18 17 17 17 15 13 12 12 11 11 12 12 12 12 12 12 11 11 12 11 11 12 13 14 15 15 15
1 5 5 9 13 16 11 6 19 21 19 21 22 19 21 19 17 17 16 16 15 14 13 13 13 13 13 12 12 13 13 12 11 10 9 10 10 10 11 11 12 14 15 15
6 5 4 7 7 7 13 18 23 24 27 26 23 19 21 21 17 15 15 15 15 16 16 16 14 13 13 12 12 14 12 11 10 9 9 10 10 10 11 12 12 12 14 15
Wind_Direction
68 222 221 224 222 313 250 242 256 213 99 300 258 275 284 287 227 253 310 357 182 180 184 187 188 190 191 194 195 197 198 198 198 197 195 193 194 192 192 189 181 172 158 142
190 238 99 109 124 166 203 246 251 225 161 287 289 286 285 203 209 241 293 161 171 178 179 184 186 189 192 195 195 198 199 201 199 201 201 200 198 197 199 197 194 189 184 178
232 88 131 157 162 196 221 235 230 274 298 234 300 263 195 194 201 199 213 211 192 188 180 183 186 189 191 195 196 198 200 198 200 199 198 199 200 201 201 200 200 200 201 204
253 119 168 184 220 206 248 151 144 159 286 265 331 278 219 195 204 209 198 191 187 186 181 183 183 188 191 191 193 196 196 196 198 198 198 203 210 207 203 204 207 210 214 220
141 169 177 207 205 202 62 115 108 110 123 322 193 208 228 183 223 209 194 188 187 189 186 184 183 185 185 188 190 190 191 194 196 196 198 202 204 206 208 208 210 214 220 229
78 41 331 53 77 48 136 126 108 113 169 235 120 239 246 199 227 196 180 178 183 188 185 181 181 182 183 185 186 187 190 193 193 195 199 203 208 209 206 206 208 213 220 230
155 175 104 170 135 123 181 177 260 236 197 253 141 211 256 261 107 226 174 160 156 181 179 183 183 181 181 182 186 190 192 192 193 196 200 202 203 203 203 205 210 216 226 237
235 241 179 102 296 196 188 210 230 250 254 286 143 230 241 55 68 96 129 129 126 155 180 182 184 184 184 185 188 190 190 193 192 194 196 195 194 197 200 203 209 216 224 232
233 220 82 37 11 335 155 213 31 97 121 273 239 255 204 127 148 154 152 151 123 128 169 181 185 186 186 186 187 189 189 189 189 189 189 190 191 193 196 200 204 210 217 226
63 270 41 96 171 63 293 37 156 237 264 261 212 260 268 207 209 196 189 181 145 130 162 178 181 184 184 184 185 185 187 188 187 186 187 187 185 185 186 188 196 207 222 240
136 245 115 185 197 176 157 216 209 296 267 275 292 259 16 311 297 211 199 185 171 158 166 172 176 179 181 182 182 183 184 184 183 182 179 178 175 175 177 189 212 235 252 261
53 48 257 292 74 345 320 235 212 239 212 221 270 268 27 319 296 226 182 191 196 191 185 184 181 179 178 181 180 182 180 180 179 176 173 174 173 196 207 229 243 251 262 269
183 195 297 212 143 173 240 179 175 97 333 235 259 261 142 256 301 213 212 203 203 200 190 177 176 176 175 176 175 175 174 175 175 176 183 196 194 197 222 239 255 263 268 271
171 241 233 262 305 60 245 201 214 238 257 276 245 274 282 249 249 232 229 221 213 207 196 184 178 174 163 163 168 173 171 173 182 188 180 155 162 226 244 255 260 266 272 276
8 261 265 283 309 280 253 257 216 212 247 250 281 287 306 327 297 258 260 225 213 202 201 193 181 182 174 169 164 166 167 165 164 148 130 168 219 241 259 268 271 271 272 274
12 275 357 281 273 267 278 264 239 245 253 265 273 281 50 325 313 315 260 211 206 204 202 192 183 173 165 162 160 159 159 150 132 146 192 226 251 268 272 274 274 275 279 282
300 278 308 278 10 315 281 243 209 208 219 265 271 318 322 321 330 322 272 228 206 196 188 179 173 167 164 157 157 150 145 149 171 205 234 263 277 280 279 278 280 281 284 285
240 202 257 283 306 247 54 182 211 244 259 219 277 281 295 293 341 26 167 194 194 190 180 179 176 170 166 157 158 160 173 198 226 256 279 289 290 287 285 284 283 284 288 294
217 212 247 259 249 292 249 196 192 185 263 194 238 220 230 218 289 278 230 196 193 190 186 182 178 172 167 166 176 200 236 255 269 283 290 291 287 287 289 290 292 293 295 295
154 258 251 221 260 266 51 148 137 161 271 187 205 234 224 206 257 261 204 192 178 173 171 165 169 176 185 188 212 245 265 269 278 285 287 291 297 294 292 290 291 292 291 291
171 202 230 246 261 278 279 129 145 245 5 209 251 260 222 220 244 245 188 173 169 166 173 177 180 186 200 227 244 255 265 278 285 289 292 294 293 293 294 294 292 290 290 292
190 188 203 178 236 266 154 133 219 360 308 293 277 260 251 244 241 206 190 186 185 188 194 197 201 208 228 244 253 266 280 286 287 289 288 287 289 290 289 286 287 289 290 290
224 218 193 212 242 272 199 259 284 300 283 281 281 282 269 242 219 201 191 200 205 211 205 207 220 234 248 258 267 272 274 275 278 280 282 283 284 284 283 282 283 283 286 287
229 173 237 250 264 270 280 290 291 292 291 297 290 282 257 220 201 206 210 210 217 213 213 222 231 240 250 256 258 261 266 272 277 279 280 280 279 278 279 281 284 284 287 286
318 166 238 260 280 290 291 309 317 304 296 292 289 271 229 214 219 215 216 222 219 219 223 228 230 235 246 254 264 270 277 279 279 279 278 275 275 276 277 279 282 284 284 283
199 217 227 277 316 271 294 310 307 301 297 290 283 249 217 228 225 227 220 222 224 223 225 228 232 238 245 252 260 267 271 272 274 270 266 269 274 276 281 287 289 283 285 281
Height
1503 1500 1497 1496 1502 1505 1504 1503 1502 1503 1513 1512 1501 1498 1493 1495 1496 1495 1495 1494 1495 1497 1499 1501 1505 1508 1512 1515 1519 1522 1525 1529 1532 1535 1537 1540 1542 1543 1545 1547 1548 1549 1550 1551
1503 1496 1503 1506 1507 1507 1507 1505 1501 1505 1513 1511 1501 1492 1490 1493 1493 1495 1495 1494 1495 1496 1497 1499 1502 1506 1509 1513 1516 1520 1523 1527 1530 1533 1536 1539 1540 1542 1544 1546 1547 1549 1550 1551
1495 1503 1507 1506 1507 1507 1505 1504 1505 1506 1509 1512 1507 1484 1486 1490 1492 1493 1493 1492 1492 1494 1495 1496 1499 1503 1507 1510 1513 1517 1521 1524 1528 1531 1534 1537 1539 1540 1542 1544 1545 1547 1548 1549
1500 1507 1507 1506 1505 1506 1505 1510 1511 1512 1508 1500 1508 1489 1477 1480 1485 1488 1489 1490 1491 1491 1493 1495 1497 1501 1504 1507 1511 1515 1519 1522 1526 1529 1532 1535 1538 1539 1540 1542 1543 1545 1547 1548
1497 1505 1506 1505 1504 1508 1505 1513 1512 1516 1513 1515 1503 1506 1461 1482 1480 1480 1485 1488 1489 1489 1491 1493 1495 1499 1502 1506 1509 1513 1516 1520 1524 1528 1531 1533 1535 1536 1538 1540 1541 1543 1545 1546
1505 1509 1508 1506 1512 1512 1515 1513 1514 1516 1513 1511 1506 1498 1460 1468 1467 1470 1481 1485 1486 1487 1489 1492 1495 1497 1501 1504 1508 1511 1514 1517 1521 1525 1528 1531 1533 1534 1536 1538 1540 1541 1543 1544
1504 1505 1511 1511 1509 1515 1513 1507 1499 1502 1508 1486 1512 1504 1465 1468 1475 1474 1479 1484 1486 1486 1488 1490 1493 1496 1499 1503 1507 1510 1513 1515 1519 1522 1525 1528 1530 1533 1535 1537 1538 1540 1541 1542
1490 1490 1507 1512 1509 1506 1507 1509 1494 1492 1478 1468 1513 1489 1460 1477 1481 1482 1483 1485 1486 1487 1488 1490 1493 1495 1499 1502 1506 1509 1512 1515 1518 1521 1524 1526 1528 1531 1532 1534 1536 1537 1538 1540
1495 1491 1514 1515 1515 1516 1510 1507 1509 1514 1529 1506 1466 1467 1470 1480 1482 1483 1485 1486 1487 1487 1488 1490 1492 1495 1498 1501 1505 1509 1512 1515 1518 1520 1522 1524 1526 1528 1531 1532 1534 1536 1537 1538
1502 1497 1513 1516 1517 1518 1515 1517 1505 1509 1494 1477 1464 1477 1457 1473 1478 1483 1485 1486 1488 1488 1488 1489 1491 1494 1497 1500 1503 1507 1511 1513 1516 1518 1521 1522 1524 1526 1528 1530 1532 1534 1535 1536
1508 1505 1509 1513 1509 1505 1514 1511 1514 1514 1501 1482 1468 1457 1481 1479 1481 1482 1484 1487 1488 1488 1489 1489 1490 1492 1495 1498 1502 1505 1509 1511 1514 1516 1519 1522 1522 1524 1526 1528 1530 1531 1532 1533
1511 1508 1500 1496 1520 1522 1517 1509 1507 1494 1493 1502 1503 1474 1483 1486 1485 1485 1487 1488 1489 1489 1489 1490 1490 1491 1493 1497 1501 1505 1506 1510 1514 1514 1516 1521 1522 1524 1524 1526 1527 1528 1529 1529
1509 1504 1496 1493 1516 1520 1514 1515 1514 1513 1509 1489 1489 1466 1485 1486 1486 1485 1487 1487 1487 1488 1488 1489 1491 1491 1493 1495 1499 1501 1503 1503 1510 1513 1514 1518 1519 1523 1524 1524 1525 1525 1526 1526
1506 1505 1497 1487 1485 1500 1507 1511 1516 1509 1496 1482 1472 1469 1478 1482 1484 1485 1485 1485 1485 1486 1486 1488 1489 1493 1492 1494 1496 1499 1502 1505 1509 1511 1513 1516 1519 1522 1523 1523 1523 1522 1522 1522
1509 1506 1500 1496 1498 1501 1500 1499 1504 1508 1494 1495 1470 1478 1481 1483 1484 1481 1479 1480 1481 1482 1484 1486 1487 1490 1490 1493 1495 1499 1502 1505 1507 1509 1512 1516 1518 1519 1519 1519 1519 1519 1518 1518
1511 1502 1510 1501 1494 1496 1498 1495 1495 1494 1492 1488 1485 1481 1488 1487 1484 1480 1478 1478 1479 1480 1481 1484 1487 1489 1490 1493 1496 1499 1502 1504 1506 1510 1513 1515 1515 1515 1515 1515 1515 1514 1514 1514
1513 1506 1505 1494 1495 1494 1489 1488 1488 1487 1489 1488 1485 1484 1487 1482 1481 1479 1477 1476 1477 1478 1480 1483 1486 1489 1493 1493 1497 1500 1502 1504 1507 1510 1510 1511 1511 1511 1511 1511 1510 1510 1509 1509
1510 1511 1507 1500 1498 1493 1484 1493 1493 1490 1489 1491 1490 1487 1486 1485 1482 1479 1477 1477 1478 1478 1480 1484 1486 1489 1491 1493 1496 1499 1502 1504 1505 1506 1506 1507 1507 1507 1507 1507 1506 1505 1504 1503
1511 1509 1504 1500 1490 1477 1478 1488 1488 1486 1481 1485 1484 1485 1485 1484 1482 1480 1478 1478 1478 1478 1480 1483 1486 1489 1491 1492 1495 1498 1501 1501 1501 1502 1502 1502 1502 1502 1502 1501 1500 1499 1498 1498
1510 1509 1505 1505 1497 1484 1477 1484 1487 1489 1480 1481 1483 1482 1482 1483 1478 1472 1476 1477 1478 1479 1481 1483 1485 1488 1490 1492 1494 1496 1497 1498 1497 1498 1498 1497 1496 1497 1496 1496 1496 1494 1494 1493
1507 1509 1505 1497 1496 1482 1479 1485 1488 1484 1478 1479 1479 1477 1478 1479 1475 1474 1475 1477 1478 1479 1481 1482 1484 1487 1490 1491 1492 1493 1493 1493 1493 1493 1492 1491 1491 1492 1491 1491 1491 1490 1489 1489
1496 1496 1497 1504 1505 1494 1481 1485 1484 1477 1476 1476 1473 1473 1472 1471 1472 1472 1473 1475 1476 1478 1480 1481 1484 1485 1487 1487 1489 1489 1488 1489 1489 1488 1488 1487 1486 1487 1487 1487 1486 1486 1485 1484
1497 1488 1484 1487 1475 1476 1479 1476 1475 1475 1474 1473 1470 1468 1466 1466 1468 1469 1471 1473 1474 1475 1477 1478 1480 1482 1483 1484 1484 1484 1485 1485 1484 1484 1483 1482 1482 1482 1482 1482 1482 1482 1481 1480
1489 1490 1486 1485 1470 1474 1474 1474 1472 1471 1470 1468 1465 1462 1462 1462 1464 1466 1468 1469 1471 1472 1473 1475 1477 1477 1479 1480 1480 1480 1480 1479 1479 1479 1478 1478 1478 1478 1478 1478 1477 1476 1475 1475
1485 1488 1480 1476 1472 1471 1469 1470 1470 1468 1466 1463 1460 1458 1458 1460 1461 1462 1464 1466 1468 1470 1471 1473 1473 1474 1475 1475 1474 1474 1474 1474 1474 1474 1474 1473 1473 1473 1473 1473 1472 1471 1470 1470
1484 1479 1477 1468 1471 1470 1469 1469 1467 1464 1460 1458 1455 1453 1455 1456 1457 1459 1460 1462 1464 1466 1468 1469 1470 1470 1471 1471 1469 1469 1469 1469 1469 1469 1469 1469 1469 1469 1469 1468 1467 1466 1464 1463